DW9025 Shrewsbury MA US current weather conditions

sailwx.info

Wind from 226 at 0 knots gusting 6

Air temperature 0.6° C
Dewpoint -1.8° C

Last reported at 2019-Dec-05 14:00 UTC.
Time now 2019-Dec-05 14:37 UTC

Location: N 42°11' W 071°52'.
View on Google Maps.

See reports from other nearby stations

  
Tides and Currents Weather Stations Pressure Air Temp Water Temp Dewpoint Dewpoint Depression Visibility Wind Speed Wind Dir Waves Ship Positions
date/time (UTC)wind fromknots sea level pressurealtimeterstation pressurevisibilityair tempwater tempwave heightnotes
2019-Dec-05 14:00 226 0 gusting 6 0.6
2019-Dec-05 13:45 256 -0.0
2019-Dec-05 13:15 187 -0.6
2019-Dec-05 13:00 187 -1.1
2019-Dec-05 12:47 187 0 gusting 7 -1.1
2019-Dec-05 12:31 188 0 gusting 6 -1.1
2019-Dec-05 12:17 187 0 gusting 4 -1.7
2019-Dec-05 12:01 187 0 gusting 5 -1.7
2019-Dec-05 11:46 187 0 gusting 3 -1.7
2019-Dec-05 11:32 187 -1.1
2019-Dec-05 11:16 187 -1.1
2019-Dec-05 11:02 187 -1.1
2019-Dec-05 10:45 187 -1.1
2019-Dec-05 10:30 187 -1.7
2019-Dec-05 10:15 187 -1.7
2019-Dec-05 10:01 187 -1.7
2019-Dec-05 09:46 187 -1.7
2019-Dec-05 09:30 188 -1.7
2019-Dec-05 09:16 187 -1.7
2019-Dec-05 09:01 187 -1.7
2019-Dec-05 08:46 187 0 gusting 3 -1.7
2019-Dec-05 08:31 187 0 gusting 4 -1.7
2019-Dec-05 08:15 187 -1.7
2019-Dec-05 08:01 188 -1.7
2019-Dec-05 07:45 187 -1.7
2019-Dec-05 07:31 187 0 gusting 3 -1.7
2019-Dec-05 07:15 187 -2.2
2019-Dec-05 07:00 187 -1.7
2019-Dec-05 06:45 187 -1.1
2019-Dec-05 06:30 187 -1.1
2019-Dec-05 06:15 187 0 gusting 2 -1.1
2019-Dec-05 06:00 187 -1.7
2019-Dec-05 05:45 187 -1.7
2019-Dec-05 05:30 187 -1.1
2019-Dec-05 05:17 187 -1.1
2019-Dec-05 05:02 187 -1.1
2019-Dec-05 04:49 187 -1.1
2019-Dec-05 04:32 187 -1.1
2019-Dec-05 04:16 187 -1.1
2019-Dec-05 04:02 187 -0.6
2019-Dec-05 03:46 187 -0.6
2019-Dec-05 03:31 225 0 gusting 4 -0.0
2019-Dec-05 03:17 242 -0.0
2019-Dec-05 03:02 228 0 gusting 4 -0.0
2019-Dec-05 02:47 206 -0.0
2019-Dec-05 02:31 219 -0.0
2019-Dec-05 02:17 218 -0.0
2019-Dec-05 02:01 229 -0.6
2019-Dec-05 01:46 239 0 gusting 2 -0.6
2019-Dec-05 01:31 208 -0.6
2019-Dec-05 01:16 232 0 gusting 2 -0.0
2019-Dec-05 01:01 217 -0.0
2019-Dec-05 00:46 139 -0.6
2019-Dec-05 00:31 126 -0.0
2019-Dec-05 00:17 111 -0.0
2019-Dec-05 00:01 214 -0.0
2019-Dec-04 23:47 223 -0.0
2019-Dec-04 23:32 218 -0.0
2019-Dec-04 23:16 239 -0.0
2019-Dec-04 23:00 126 0.6
2019-Dec-04 22:47 217 0.6
2019-Dec-04 22:30 211 0.6
2019-Dec-04 22:16 212 0.6
2019-Dec-04 22:01 202 0.6
2019-Dec-04 21:46 124 1.1
2019-Dec-04 21:31 129 1.1
2019-Dec-04 21:16 159 1.1
2019-Dec-04 21:01 110 1.1
2019-Dec-04 20:46 198 1.7
2019-Dec-04 20:31 153 1.7
2019-Dec-04 20:16 117 1.7
2019-Dec-04 20:01 210 1.7
2019-Dec-04 19:46 222 2.2
2019-Dec-04 19:31 226 2.2
2019-Dec-04 19:16 103 2.2
2019-Dec-04 19:00 218 2.2
2019-Dec-04 18:45 240 2.2
2019-Dec-04 18:30 217 2.2
2019-Dec-04 18:15 267 2.2
2019-Dec-04 18:01 221 1.7
2019-Dec-04 17:45 200 2.2
2019-Dec-04 17:30 208 1.7
2019-Dec-04 17:16 243 1.7
2019-Dec-04 17:00 214 1.1
2019-Dec-04 16:45 235 1.1
2019-Dec-04 16:31 207 1.1
2019-Dec-04 16:15 236 0.6
2019-Dec-04 16:00 219 0 gusting 2 0.6
2019-Dec-04 15:45 210 1 gusting 4 0.6
2019-Dec-04 15:30 224 -0.0
2019-Dec-04 15:15 220 -0.0
2019-Dec-04 15:00 225 0 gusting 4 -0.0
2019-Dec-04 14:45 214 -0.6
2019-Dec-04 14:30 226 -1.1
2019-Dec-04 14:17 257 0 gusting 5 -1.1
2019-Dec-04 14:02 210 -1.1
2019-Dec-04 13:46 221 -1.1
2019-Dec-04 13:31 205 -1.7
2019-Dec-04 13:16 222 -1.7
2019-Dec-04 13:01 226 -2.2
2019-Dec-04 12:46 224 -2.2
2019-Dec-04 12:32 207 -2.2
2019-Dec-04 12:16 114 -2.8
2019-Dec-04 12:01 141 -2.8
2019-Dec-04 11:46 250 -2.8
2019-Dec-04 11:31 218 -2.8
2019-Dec-04 11:16 132 -2.8
2019-Dec-04 11:01 201 -2.8
2019-Dec-04 10:46 217 -2.8
2019-Dec-04 10:16 239 0 gusting 5 -2.8
2019-Dec-04 10:00 217 0 gusting 4 -2.8
2019-Dec-04 09:45 221 -2.8
2019-Dec-04 09:30 091 -2.8
2019-Dec-04 09:15 135 -2.8
2019-Dec-04 09:00 238 -3.3
2019-Dec-04 08:46 086 -3.3
2019-Dec-04 08:30 215 0 gusting 6 -3.3
2019-Dec-04 08:15 225 0 gusting 3 -3.3
2019-Dec-04 08:01 204 -3.3
2019-Dec-04 07:45 228 -3.9
2019-Dec-04 07:30 225 -3.9
2019-Dec-04 07:16 246 -3.9
2019-Dec-04 07:00 335 -4.4
2019-Dec-04 06:46 242 -3.9
2019-Dec-04 06:30 155 -3.9
2019-Dec-04 06:15 215 -3.9
2019-Dec-04 06:00 283 -3.9
2019-Dec-04 05:45 210 -3.9
2019-Dec-04 05:30 339 0 gusting 4 -3.9
2019-Dec-04 05:15 053 1 gusting 6 -3.9
2019-Dec-04 05:00 224 -3.9
2019-Dec-04 04:30 232 -3.9
2019-Dec-04 04:17 206 -3.9
2019-Dec-04 04:02 120 -3.9
2019-Dec-04 03:46 195 -3.9
2019-Dec-04 03:31 195 -3.3
2019-Dec-04 03:16 225 -3.3
2019-Dec-04 03:02 198 -3.3
2019-Dec-04 02:46 198 -3.3
2019-Dec-04 02:32 229 0 gusting 2 -3.3
2019-Dec-04 02:17 200 -3.3
2019-Dec-04 02:01 105 -3.3
2019-Dec-04 01:47 032 -3.3
2019-Dec-04 01:31 205 -2.8
2019-Dec-04 01:16 232 -2.8
2019-Dec-04 01:01 122 -2.8
2019-Dec-04 00:46 072 -2.8
2019-Dec-04 00:31 023 -2.2
2019-Dec-04 00:17 242 -2.2
2019-Dec-04 00:01 040 -2.2
2019-Dec-03 23:46 018 0 gusting 3 -2.2
2019-Dec-03 23:31 032 0 gusting 10 -1.7
2019-Dec-03 23:17 056 0 gusting 6 -2.2
2019-Dec-03 23:02 064 1 gusting 9 -2.2
2019-Dec-03 22:46 353 1 gusting 17 -2.2
2019-Dec-03 22:31 305 1 gusting 9 -2.2
2019-Dec-03 22:15 031 1 gusting 8 -2.2
2019-Dec-03 22:01 205 1 gusting 6 -2.2
2019-Dec-03 21:46 019 2 gusting 6 -1.7
2019-Dec-03 21:31 337 1 gusting 11 -1.7
2019-Dec-03 21:16 180 1 gusting 11 -1.7
2019-Dec-03 21:01 288 0 gusting 7 -1.7
2019-Dec-03 20:46 019 2 gusting 7 -1.7
2019-Dec-03 20:30 018 1 gusting 8 -1.7
2019-Dec-03 20:16 071 0 gusting 7 -1.7
2019-Dec-03 20:00 015 0 gusting 5 -1.7
2019-Dec-03 19:46 035 0 gusting 6 -1.7
2019-Dec-03 19:31 218 1 gusting 6 -1.7
2019-Dec-03 19:15 153 0 gusting 11 -1.1
2019-Dec-03 19:01 345 0 gusting 11 -1.1
2019-Dec-03 18:45 225 -1.1
2019-Dec-03 18:30 228 -1.1
2019-Dec-03 18:16 016 0 gusting 6 -1.1
2019-Dec-03 18:00 022 0 gusting 10 -1.7
2019-Dec-03 17:45 006 0 gusting 9 -1.7
2019-Dec-03 17:30 309 0 gusting 7 -1.7
2019-Dec-03 17:15 015 0 gusting 6 -1.7
2019-Dec-03 17:00 254 1 gusting 8 -1.7
2019-Dec-03 16:45 115 0 gusting 6 -1.7
2019-Dec-03 16:30 065 0 gusting 6 -2.2
2019-Dec-03 16:15 239 -2.2
2019-Dec-03 16:00 028 0 gusting 4 -2.2
2019-Dec-03 15:45 019 -2.8
2019-Dec-03 15:30 211 -2.8
2019-Dec-03 15:15 101 0 gusting 5 -3.3
2019-Dec-03 15:00 226 -3.3
2019-Dec-03 14:45 266 -3.3
2019-Dec-03 14:33 191 -3.3
2019-Dec-03 14:17 218 -3.3
2019-Dec-03 14:01 006 -3.9